QPF
0.05 0.05 0.05 0.05 0.05 0.05 0.06 0.07 0.09 0.11 0.12 0.11 0.08 0.06 0.05 0.05 0.05 0.04 0.02 0.02 0.02 0.02 0.02 0.02 0.02 0.02 0.02 0.02 0.01 0.01 0.01 0.01 0.01 0.01 0.01 0.01 0.00 0.00 0.00 0.01 0.01 0.01 0.01
0.07 0.06 0.05 0.04 0.05 0.05 0.06 0.07 0.08 0.09 0.09 0.10 0.09 0.06 0.05 0.05 0.05 0.05 0.04 0.03 0.02 0.02 0.02 0.02 0.03 0.03 0.03 0.03 0.02 0.01 0.01 0.01 0.01 0.01 0.01 0.01 0.01 0.01 0.01 0.00 0.01 0.01 0.01
0.07 0.06 0.06 0.05 0.04 0.05 0.07 0.08 0.09 0.10 0.09 0.09 0.08 0.07 0.05 0.05 0.06 0.06 0.05 0.04 0.04 0.03 0.03 0.02 0.03 0.04 0.05 0.04 0.02 0.01 0.01 0.01 0.01 0.01 0.01 0.01 0.00 0.00 0.00 0.01 0.01 0.01 0.01
0.06 0.06 0.06 0.06 0.05 0.06 0.07 0.09 0.09 0.10 0.10 0.10 0.09 0.09 0.08 0.06 0.05 0.05 0.06 0.06 0.05 0.04 0.03 0.03 0.03 0.04 0.05 0.06 0.04 0.02 0.01 0.01 0.01 0.01 0.00 0.00 0.00 0.01 0.01 0.01 0.01 0.01 0.01
0.06 0.06 0.07 0.06 0.06 0.06 0.07 0.09 0.09 0.08 0.09 0.09 0.10 0.11 0.10 0.09 0.07 0.06 0.05 0.06 0.06 0.05 0.04 0.04 0.03 0.04 0.05 0.06 0.06 0.04 0.03 0.02 0.02 0.01 0.01 0.01 0.01 0.01 0.01 0.01 0.01 0.01 0.01
0.07 0.07 0.07 0.08 0.07 0.07 0.07 0.09 0.08 0.08 0.08 0.09 0.10 0.11 0.11 0.11 0.09 0.08 0.06 0.05 0.05 0.05 0.05 0.04 0.04 0.04 0.04 0.06 0.06 0.05 0.04 0.03 0.02 0.02 0.01 0.01 0.01 0.01 0.01 0.01 0.01 0.01 0.01
0.07 0.09 0.08 0.09 0.08 0.07 0.07 0.09 0.10 0.09 0.09 0.09 0.11 0.13 0.13 0.13 0.12 0.09 0.07 0.06 0.04 0.03 0.04 0.04 0.04 0.04 0.04 0.05 0.05 0.05 0.04 0.04 0.03 0.03 0.02 0.02 0.02 0.01 0.01 0.01 0.01 0.01 0.01
0.07 0.10 0.10 0.09 0.09 0.07 0.08 0.09 0.10 0.11 0.11 0.10 0.10 0.13 0.14 0.13 0.13 0.10 0.09 0.07 0.05 0.04 0.03 0.03 0.03 0.03 0.03 0.04 0.04 0.04 0.03 0.04 0.03 0.03 0.02 0.02 0.02 0.02 0.02 0.01 0.01 0.01 0.01
0.07 0.09 0.10 0.09 0.08 0.07 0.07 0.07 0.08 0.09 0.11 0.12 0.10 0.11 0.12 0.11 0.09 0.08 0.08 0.08 0.06 0.04 0.03 0.03 0.03 0.03 0.02 0.02 0.02 0.03 0.02 0.02 0.03 0.03 0.02 0.02 0.02 0.02 0.02 0.02 0.02 0.02 0.02
0.08 0.08 0.09 0.08 0.08 0.08 0.08 0.08 0.08 0.08 0.09 0.10 0.12 0.11 0.09 0.07 0.07 0.07 0.07 0.07 0.06 0.05 0.04 0.03 0.04 0.03 0.03 0.02 0.02 0.02 0.02 0.02 0.02 0.02 0.03 0.02 0.02 0.02 0.02 0.02 0.02 0.02 0.02
0.08 0.08 0.08 0.08 0.08 0.08 0.10 0.12 0.11 0.12 0.11 0.10 0.11 0.11 0.10 0.08 0.07 0.07 0.07 0.07 0.07 0.06 0.04 0.04 0.04 0.04 0.03 0.03 0.02 0.02 0.01 0.01 0.02 0.02 0.02 0.02 0.02 0.02 0.02 0.02 0.02 0.02 0.02
0.09 0.10 0.10 0.08 0.07 0.07 0.09 0.13 0.13 0.14 0.15 0.13 0.11 0.12 0.11 0.10 0.08 0.07 0.06 0.06 0.07 0.06 0.05 0.04 0.04 0.03 0.03 0.03 0.03 0.02 0.02 0.01 0.02 0.02 0.01 0.01 0.02 0.01 0.02 0.02 0.02 0.02 0.02
0.10 0.11 0.11 0.09 0.07 0.06 0.07 0.10 0.13 0.13 0.14 0.15 0.14 0.12 0.10 0.09 0.08 0.07 0.06 0.06 0.07 0.07 0.07 0.05 0.04 0.04 0.03 0.03 0.03 0.03 0.02 0.01 0.01 0.02 0.01 0.01 0.01 0.01 0.01 0.02 0.02 0.03 0.03
0.11 0.11 0.10 0.10 0.07 0.06 0.07 0.08 0.11 0.12 0.12 0.12 0.12 0.11 0.09 0.08 0.07 0.07 0.07 0.07 0.07 0.07 0.07 0.06 0.05 0.04 0.04 0.03 0.03 0.03 0.02 0.02 0.02 0.01 0.01 0.01 0.01 0.01 0.01 0.02 0.03 0.03 0.03
0.12 0.13 0.11 0.10 0.08 0.08 0.08 0.09 0.09 0.11 0.12 0.12 0.11 0.10 0.08 0.06 0.05 0.06 0.07 0.08 0.07 0.07 0.07 0.06 0.05 0.05 0.04 0.04 0.04 0.04 0.03 0.03 0.02 0.02 0.02 0.01 0.02 0.02 0.02 0.02 0.03 0.03 0.03
0.14 0.15 0.15 0.14 0.12 0.11 0.11 0.11 0.11 0.10 0.11 0.11 0.11 0.09 0.08 0.06 0.04 0.04 0.06 0.08 0.08 0.07 0.06 0.05 0.05 0.05 0.05 0.04 0.05 0.04 0.04 0.04 0.03 0.02 0.02 0.01 0.01 0.02 0.02 0.02 0.02 0.02 0.02
0.15 0.16 0.17 0.17 0.17 0.16 0.14 0.14 0.15 0.12 0.12 0.11 0.12 0.10 0.08 0.06 0.05 0.04 0.06 0.07 0.07 0.08 0.07 0.06 0.05 0.05 0.06 0.06 0.05 0.05 0.05 0.04 0.04 0.03 0.02 0.02 0.02 0.02 0.02 0.02 0.02 0.02 0.02
0.12 0.11 0.13 0.14 0.16 0.17 0.18 0.17 0.17 0.15 0.13 0.12 0.12 0.11 0.09 0.07 0.06 0.05 0.05 0.06 0.06 0.07 0.07 0.07 0.05 0.05 0.06 0.06 0.06 0.06 0.05 0.04 0.04 0.04 0.03 0.02 0.01 0.01 0.02 0.02 0.02 0.02 0.02
0.14 0.11 0.10 0.11 0.13 0.14 0.16 0.19 0.19 0.17 0.14 0.12 0.11 0.11 0.09 0.08 0.07 0.06 0.05 0.06 0.06 0.06 0.07 0.07 0.06 0.04 0.04 0.06 0.07 0.08 0.08 0.07 0.04 0.03 0.03 0.02 0.02 0.02 0.02 0.01 0.01 0.01 0.01
0.11 0.12 0.10 0.11 0.12 0.13 0.13 0.16 0.20 0.18 0.17 0.14 0.12 0.11 0.09 0.07 0.06 0.06 0.06 0.06 0.06 0.06 0.07 0.07 0.06 0.06 0.06 0.06 0.08 0.08 0.08 0.07 0.05 0.03 0.02 0.02 0.02 0.02 0.02 0.01 0.01 0.01 0.01
0.09 0.11 0.12 0.12 0.11 0.13 0.14 0.16 0.18 0.17 0.17 0.18 0.15 0.12 0.10 0.09 0.07 0.07 0.06 0.06 0.07 0.08 0.08 0.10 0.09 0.08 0.08 0.07 0.07 0.07 0.06 0.06 0.05 0.04 0.03 0.02 0.02 0.02 0.02 0.01 0.01 0.01 0.01
0.08 0.10 0.12 0.13 0.13 0.13 0.15 0.17 0.18 0.17 0.17 0.19 0.19 0.15 0.12 0.11 0.10 0.09 0.09 0.07 0.07 0.07 0.08 0.09 0.09 0.08 0.08 0.07 0.06 0.06 0.05 0.05 0.06 0.05 0.04 0.03 0.02 0.02 0.01 0.01 0.01 0.01 0.01
0.09 0.10 0.12 0.14 0.14 0.15 0.15 0.15 0.18 0.20 0.19 0.19 0.18 0.16 0.15 0.13 0.11 0.10 0.10 0.10 0.09 0.08 0.08 0.08 0.08 0.07 0.07 0.07 0.06 0.05 0.05 0.04 0.04 0.04 0.04 0.04 0.03 0.02 0.01 0.01 0.01 0.01 0.01
0.06 0.08 0.11 0.13 0.14 0.15 0.15 0.14 0.17 0.19 0.21 0.21 0.19 0.16 0.15 0.13 0.12 0.12 0.11 0.10 0.10 0.10 0.09 0.09 0.09 0.08 0.08 0.07 0.06 0.06 0.05 0.05 0.04 0.04 0.03 0.03 0.03 0.02 0.02 0.01 0.02 0.02 0.02
0.04 0.05 0.07 0.11 0.13 0.15 0.16 0.14 0.16 0.17 0.21 0.22 0.20 0.17 0.15 0.14 0.15 0.14 0.12 0.12 0.11 0.11 0.11 0.12 0.12 0.11 0.11 0.10 0.10 0.09 0.07 0.06 0.05 0.04 0.03 0.02 0.02 0.02 0.02 0.02 0.02 0.02 0.02
0.05 0.05 0.06 0.09 0.11 0.12 0.14 0.16 0.17 0.17 0.20 0.22 0.21 0.20 0.19 0.17 0.17 0.14 0.12 0.13 0.13 0.11 0.11 0.13 0.15 0.14 0.11 0.10 0.09 0.07 0.05 0.04 0.03 0.03 0.03 0.02 0.02 0.02 0.02 0.02 0.02 0.02 0.02
MSLP
1011.53 1011.10 1010.63 1010.14 1009.65 1009.16 1008.67 1008.18 1007.66 1007.11 1006.53 1005.94 1005.36 1004.85 1004.45 1004.19 1004.12 1004.21 1004.46 1004.81 1005.22 1005.62 1005.99 1006.30 1006.57 1006.81 1007.06 1007.35 1007.71 1008.13 1008.60 1009.10 1009.60 1010.07 1010.49 1010.86 1011.17 1011.42 1011.64 1011.82 1011.97 1012.08 1012.16
1011.35 1010.92 1010.44 1009.95 1009.46 1008.98 1008.51 1008.02 1007.52 1006.98 1006.40 1005.78 1005.17 1004.59 1004.11 1003.76 1003.59 1003.60 1003.77 1004.07 1004.44 1004.84 1005.23 1005.58 1005.90 1006.19 1006.48 1006.81 1007.18 1007.62 1008.10 1008.61 1009.13 1009.63 1010.08 1010.48 1010.82 1011.09 1011.32 1011.50 1011.63 1011.72 1011.76
1011.11 1010.68 1010.22 1009.74 1009.26 1008.80 1008.36 1007.91 1007.44 1006.93 1006.36 1005.73 1005.08 1004.45 1003.88 1003.43 1003.14 1003.03 1003.10 1003.32 1003.64 1004.02 1004.43 1004.83 1005.20 1005.56 1005.92 1006.30 1006.71 1007.16 1007.65 1008.17 1008.69 1009.20 1009.66 1010.07 1010.42 1010.71 1010.93 1011.09 1011.20 1011.25 1011.26
1010.75 1010.35 1009.90 1009.45 1009.00 1008.58 1008.18 1007.78 1007.36 1006.88 1006.34 1005.72 1005.05 1004.37 1003.72 1003.16 1002.74 1002.51 1002.45 1002.57 1002.83 1003.19 1003.61 1004.06 1004.51 1004.94 1005.38 1005.82 1006.27 1006.75 1007.24 1007.76 1008.27 1008.76 1009.22 1009.63 1009.97 1010.25 1010.46 1010.60 1010.67 1010.69 1010.67
1010.26 1009.87 1009.45 1009.03 1008.63 1008.26 1007.91 1007.57 1007.20 1006.77 1006.26 1005.66 1004.98 1004.26 1003.54 1002.89 1002.36 1002.00 1001.83 1001.85 1002.05 1002.39 1002.82 1003.31 1003.82 1004.34 1004.85 1005.35 1005.85 1006.35 1006.84 1007.35 1007.84 1008.31 1008.75 1009.14 1009.46 1009.72 1009.91 1010.02 1010.07 1010.06 1010.01
1009.59 1009.22 1008.83 1008.46 1008.11 1007.79 1007.50 1007.21 1006.90 1006.52 1006.05 1005.48 1004.80 1004.06 1003.30 1002.58 1001.96 1001.50 1001.24 1001.18 1001.32 1001.63 1002.07 1002.60 1003.17 1003.75 1004.33 1004.88 1005.41 1005.92 1006.41 1006.90 1007.36 1007.81 1008.22 1008.59 1008.90 1009.15 1009.32 1009.41 1009.44 1009.41 1009.35
1008.77 1008.40 1008.05 1007.71 1007.41 1007.15 1006.92 1006.69 1006.42 1006.10 1005.67 1005.13 1004.48 1003.74 1002.97 1002.21 1001.54 1001.02 1000.69 1000.58 1000.67 1000.96 1001.40 1001.94 1002.55 1003.17 1003.79 1004.37 1004.92 1005.44 1005.92 1006.39 1006.83 1007.25 1007.64 1008.00 1008.30 1008.54 1008.71 1008.81 1008.84 1008.82 1008.75
1007.82 1007.46 1007.13 1006.83 1006.58 1006.37 1006.18 1005.99 1005.78 1005.49 1005.11 1004.61 1003.99 1003.29 1002.53 1001.78 1001.10 1000.56 1000.20 1000.05 1000.12 1000.37 1000.80 1001.34 1001.96 1002.60 1003.22 1003.82 1004.37 1004.88 1005.36 1005.81 1006.24 1006.65 1007.03 1007.39 1007.70 1007.96 1008.15 1008.27 1008.32 1008.32 1008.28
1006.80 1006.44 1006.13 1005.86 1005.65 1005.47 1005.32 1005.17 1004.99 1004.74 1004.39 1003.94 1003.37 1002.72 1002.01 1001.30 1000.65 1000.13 999.77 999.60 999.64 999.87 1000.27 1000.79 1001.39 1002.01 1002.63 1003.22 1003.77 1004.27 1004.74 1005.18 1005.61 1006.03 1006.43 1006.80 1007.14 1007.43 1007.66 1007.82 1007.92 1007.96 1007.96
1005.76 1005.40 1005.10 1004.86 1004.67 1004.53 1004.40 1004.28 1004.12 1003.89 1003.58 1003.17 1002.66 1002.07 1001.43 1000.78 1000.19 999.70 999.36 999.19 999.22 999.42 999.78 1000.26 1000.82 1001.42 1002.02 1002.59 1003.13 1003.64 1004.12 1004.57 1005.02 1005.45 1005.88 1006.29 1006.67 1007.00 1007.28 1007.50 1007.65 1007.74 1007.79
1004.72 1004.35 1004.06 1003.84 1003.67 1003.55 1003.45 1003.35 1003.21 1003.01 1002.72 1002.36 1001.90 1001.37 1000.80 1000.22 999.69 999.25 998.93 998.78 998.79 998.96 999.29 999.73 1000.25 1000.82 1001.40 1001.97 1002.52 1003.05 1003.55 1004.04 1004.51 1004.99 1005.45 1005.90 1006.31 1006.69 1007.02 1007.29 1007.49 1007.64 1007.73
1003.64 1003.26 1002.98 1002.77 1002.64 1002.54 1002.47 1002.39 1002.27 1002.09 1001.84 1001.51 1001.10 1000.62 1000.12 999.60 999.13 998.73 998.45 998.30 998.30 998.45 998.75 999.16 999.65 1000.21 1000.80 1001.39 1001.98 1002.55 1003.10 1003.64 1004.16 1004.68 1005.17 1005.65 1006.11 1006.52 1006.88 1007.19 1007.43 1007.62 1007.75
1002.45 1002.07 1001.79 1001.61 1001.50 1001.44 1001.41 1001.37 1001.28 1001.14 1000.92 1000.63 1000.26 999.83 999.38 998.91 998.48 998.12 997.86 997.72 997.72 997.86 998.14 998.54 999.04 999.62 1000.24 1000.89 1001.55 1002.19 1002.82 1003.42 1004.00 1004.56 1005.09 1005.59 1006.05 1006.48 1006.86 1007.18 1007.45 1007.66 1007.82
1001.07 1000.67 1000.40 1000.25 1000.19 1000.19 1000.22 1000.24 1000.21 1000.12 999.95 999.70 999.37 998.98 998.56 998.13 997.73 997.39 997.15 997.02 997.02 997.17 997.46 997.88 998.42 999.06 999.76 1000.50 1001.25 1002.00 1002.72 1003.40 1004.04 1004.64 1005.19 1005.69 1006.15 1006.57 1006.94 1007.26 1007.53 1007.75 1007.91
999.43 999.01 998.75 998.63 998.63 998.72 998.84 998.95 999.01 998.99 998.88 998.68 998.39 998.04 997.65 997.25 996.87 996.56 996.33 996.22 996.24 996.42 996.74 997.22 997.83 998.56 999.36 1000.22 1001.10 1001.97 1002.79 1003.57 1004.27 1004.90 1005.46 1005.95 1006.39 1006.78 1007.12 1007.42 1007.67 1007.87 1008.02
997.50 997.05 996.80 996.74 996.82 997.01 997.25 997.47 997.64 997.72 997.70 997.56 997.33 997.01 996.66 996.29 995.94 995.65 995.45 995.37 995.43 995.66 996.05 996.60 997.31 998.15 999.08 1000.08 1001.08 1002.07 1003.01 1003.87 1004.63 1005.29 1005.85 1006.33 1006.73 1007.08 1007.38 1007.64 1007.86 1008.03 1008.16
995.32 994.84 994.61 994.61 994.79 995.10 995.47 995.83 996.13 996.33 996.40 996.34 996.17 995.91 995.60 995.27 994.96 994.71 994.56 994.54 994.67 994.97 995.44 996.10 996.91 997.87 998.93 1000.05 1001.18 1002.28 1003.31 1004.25 1005.06 1005.74 1006.31 1006.77 1007.14 1007.44 1007.70 1007.91 1008.09 1008.23 1008.33
993.03 992.52 992.32 992.38 992.66 993.09 993.60 994.10 994.52 994.84 995.01 995.04 994.94 994.75 994.51 994.24 994.00 993.83 993.76 993.82 994.04 994.43 995.00 995.75 996.67 997.73 998.90 1000.12 1001.35 1002.54 1003.65 1004.64 1005.49 1006.20 1006.77 1007.21 1007.56 1007.83 1008.05 1008.22 1008.36 1008.46 1008.51
990.78 990.26 990.09 990.21 990.59 991.13 991.75 992.37 992.91 993.32 993.59 993.70 993.69 993.59 993.43 993.26 993.13 993.06 993.11 993.28 993.61 994.11 994.78 995.62 996.62 997.76 999.00 1000.28 1001.57 1002.81 1003.97 1005.00 1005.88 1006.60 1007.18 1007.62 1007.96 1008.21 1008.39 1008.53 1008.62 1008.68 1008.68
988.76 988.24 988.10 988.28 988.73 989.35 990.06 990.75 991.37 991.86 992.20 992.39 992.47 992.46 992.42 992.37 992.37 992.46 992.65 992.96 993.42 994.03 994.80 995.72 996.78 997.96 999.22 1000.52 1001.83 1003.08 1004.25 1005.29 1006.19 1006.93 1007.51 1007.96 1008.30 1008.54 1008.70 1008.81 1008.86 1008.86 1008.81
987.11 986.61 986.50 986.73 987.22 987.88 988.62 989.35 990.00 990.53 990.91 991.17 991.33 991.43 991.52 991.63 991.80 992.06 992.42 992.90 993.50 994.23 995.08 996.06 997.15 998.33 999.57 1000.85 1002.13 1003.36 1004.50 1005.54 1006.43 1007.18 1007.78 1008.24 1008.58 1008.81 1008.96 1009.04 1009.05 1009.00 1008.88
985.91 985.44 985.37 985.63 986.13 986.80 987.53 988.25 988.88 989.41 989.81 990.12 990.36 990.57 990.81 991.09 991.45 991.90 992.46 993.11 993.86 994.69 995.62 996.63 997.71 998.86 1000.06 1001.27 1002.49 1003.66 1004.76 1005.77 1006.65 1007.39 1007.99 1008.46 1008.81 1009.04 1009.17 1009.21 1009.18 1009.07 1008.89
985.17 984.77 984.73 985.00 985.50 986.13 986.81 987.47 988.06 988.55 988.96 989.30 989.62 989.95 990.34 990.81 991.37 992.03 992.77 993.59 994.48 995.41 996.39 997.41 998.47 999.56 1000.68 1001.81 1002.93 1004.03 1005.06 1006.02 1006.87 1007.60 1008.20 1008.67 1009.01 1009.23 1009.34 1009.35 1009.27 1009.11 1008.87
984.87 984.53 984.54 984.81 985.28 985.86 986.47 987.05 987.58 988.03 988.43 988.81 989.20 989.66 990.21 990.86 991.61 992.46 993.39 994.36 995.36 996.37 997.38 998.39 999.40 1000.42 1001.44 1002.47 1003.49 1004.50 1005.46 1006.36 1007.17 1007.87 1008.45 1008.91 1009.23 1009.43 1009.52 1009.49 1009.37 1009.15 1008.85
984.93 984.66 984.71 984.99 985.43 985.95 986.49 987.00 987.46 987.88 988.29 988.71 989.19 989.77 990.47 991.29 992.22 993.24 994.32 995.41 996.49 997.54 998.56 999.54 1000.48 1001.41 1002.34 1003.26 1004.18 1005.09 1005.97 1006.81 1007.56 1008.22 1008.77 1009.20 1009.50 1009.67 1009.72 1009.66 1009.49 1009.23 1008.90
985.26 985.08 985.17 985.46 985.88 986.36 986.85 987.31 987.73 988.14 988.57 989.06 989.64 990.34 991.18 992.14 993.22 994.37 995.54 996.71 997.83 998.89 999.88 1000.80 1001.67 1002.51 1003.34 1004.16 1004.99 1005.81 1006.61 1007.37 1008.07 1008.67 1009.18 1009.57 1009.83 1009.96 1009.98 1009.88 1009.68 1009.39 1009.03
Thickness
5669 5671 5673 5676 5679 5682 5684 5686 5688 5690 5692 5694 5695 5697 5698 5699 5700 5702 5702 5702 5702 5701 5700 5699 5697 5694 5692 5690 5686 5683 5680 5677 5674 5671 5668 5665 5662 5658 5655 5652 5649 5646 5642
5656 5659 5662 5665 5668 5671 5673 5676 5678 5680 5682 5685 5687 5689 5691 5692 5694 5696 5696 5696 5696 5696 5695 5694 5693 5691 5689 5687 5684 5680 5677 5674 5671 5668 5664 5661 5658 5655 5651 5648 5645 5641 5638
5643 5646 5649 5653 5657 5659 5662 5665 5667 5670 5672 5675 5677 5680 5683 5685 5687 5688 5689 5690 5690 5690 5690 5689 5689 5688 5686 5683 5681 5677 5674 5671 5668 5665 5661 5658 5654 5651 5648 5644 5641 5637 5633
5628 5632 5635 5639 5644 5647 5650 5653 5655 5657 5660 5663 5667 5670 5674 5677 5679 5681 5682 5683 5684 5684 5684 5684 5684 5683 5681 5679 5677 5674 5670 5667 5664 5661 5658 5654 5651 5647 5643 5640 5636 5632 5629
5613 5616 5620 5624 5629 5632 5636 5639 5643 5645 5648 5651 5655 5659 5663 5667 5671 5673 5674 5676 5678 5678 5679 5678 5678 5677 5676 5675 5673 5671 5667 5664 5661 5658 5654 5651 5647 5643 5639 5635 5632 5628 5624
5597 5600 5605 5609 5613 5617 5621 5625 5628 5631 5634 5638 5642 5646 5651 5656 5660 5663 5666 5669 5671 5672 5673 5673 5672 5671 5671 5670 5668 5666 5663 5660 5657 5654 5651 5647 5642 5638 5635 5631 5627 5623 5619
5581 5585 5589 5593 5598 5602 5607 5611 5615 5617 5620 5624 5626 5630 5637 5644 5649 5653 5657 5660 5663 5665 5666 5666 5666 5665 5665 5664 5663 5661 5659 5656 5652 5649 5646 5642 5638 5634 5630 5626 5622 5618 5614
5565 5569 5573 5577 5582 5588 5593 5597 5600 5603 5607 5610 5612 5613 5620 5628 5636 5643 5647 5650 5654 5656 5658 5659 5659 5659 5660 5659 5657 5655 5654 5651 5648 5645 5641 5637 5634 5630 5626 5621 5617 5613 5609
5551 5554 5559 5564 5568 5573 5579 5583 5587 5590 5593 5597 5601 5602 5606 5615 5621 5630 5635 5639 5644 5647 5649 5651 5652 5653 5653 5653 5652 5649 5648 5646 5643 5640 5636 5632 5628 5625 5621 5617 5612 5608 5603
5540 5542 5547 5552 5555 5560 5566 5570 5574 5577 5580 5584 5588 5594 5599 5605 5608 5615 5621 5627 5631 5636 5640 5643 5644 5646 5646 5647 5646 5644 5642 5640 5637 5634 5631 5627 5623 5619 5616 5612 5607 5602 5597
5529 5532 5536 5540 5544 5549 5554 5558 5562 5565 5569 5574 5578 5583 5587 5592 5599 5603 5609 5614 5619 5625 5630 5634 5636 5638 5639 5639 5639 5638 5636 5633 5631 5628 5624 5621 5617 5613 5610 5606 5601 5596 5591
5519 5522 5526 5530 5533 5538 5543 5547 5551 5554 5558 5563 5567 5573 5578 5582 5588 5592 5598 5603 5608 5615 5619 5624 5627 5629 5631 5632 5632 5631 5629 5627 5624 5621 5617 5614 5611 5607 5603 5599 5595 5590 5584
5509 5513 5517 5520 5523 5528 5532 5536 5540 5545 5547 5552 5557 5563 5569 5574 5579 5583 5586 5590 5595 5602 5606 5613 5618 5621 5623 5624 5624 5623 5622 5619 5616 5614 5611 5607 5604 5600 5596 5592 5588 5583 5578
5502 5505 5508 5510 5514 5517 5521 5525 5529 5534 5538 5543 5548 5552 5558 5564 5568 5573 5577 5580 5582 5588 5595 5603 5609 5613 5615 5615 5616 5615 5614 5612 5609 5606 5604 5600 5597 5593 5589 5584 5580 5575 5570
5493 5496 5497 5500 5504 5507 5511 5515 5519 5524 5528 5533 5538 5543 5549 5555 5558 5563 5568 5572 5574 5577 5586 5593 5599 5605 5606 5607 5608 5607 5606 5604 5602 5599 5596 5592 5589 5586 5581 5576 5571 5567 5562
5484 5485 5488 5490 5494 5497 5501 5504 5509 5514 5518 5524 5529 5534 5540 5545 5549 5553 5558 5563 5567 5570 5576 5586 5591 5596 5598 5598 5599 5598 5598 5596 5594 5591 5588 5585 5582 5578 5574 5569 5563 5558 5553
5475 5477 5479 5482 5485 5488 5491 5494 5500 5505 5509 5515 5520 5526 5532 5537 5540 5545 5549 5554 5558 5562 5567 5576 5582 5585 5587 5589 5589 5589 5588 5587 5586 5583 5580 5577 5574 5570 5566 5561 5555 5550 5545
5466 5467 5469 5471 5475 5479 5482 5485 5490 5496 5501 5507 5513 5518 5524 5529 5533 5537 5542 5547 5551 5556 5560 5565 5571 5574 5577 5579 5580 5580 5580 5579 5577 5575 5572 5569 5566 5562 5558 5553 5547 5542 5536
5456 5457 5459 5462 5466 5470 5473 5477 5482 5488 5494 5501 5507 5512 5518 5523 5528 5532 5537 5541 5545 5549 5553 5557 5562 5564 5567 5569 5569 5570 5569 5569 5568 5566 5563 5561 5558 5554 5549 5544 5538 5533 5528
5447 5448 5450 5453 5457 5461 5465 5470 5475 5481 5487 5494 5501 5506 5513 5518 5524 5527 5531 5536 5538 5541 5545 5549 5552 5555 5558 5560 5560 5560 5560 5559 5559 5557 5555 5552 5548 5544 5540 5536 5531 5525 5520
5439 5439 5442 5446 5449 5453 5458 5463 5468 5475 5481 5488 5496 5502 5509 5515 5520 5523 5528 5531 5533 5536 5540 5543 5545 5548 5550 5552 5554 5554 5554 5551 5549 5548 5545 5542 5539 5535 5531 5527 5523 5517 5512
5431 5433 5436 5439 5443 5449 5454 5459 5463 5469 5476 5484 5492 5499 5506 5511 5515 5520 5523 5527 5531 5534 5537 5539 5543 5545 5547 5548 5548 5548 5547 5544 5540 5540 5537 5532 5530 5526 5523 5519 5515 5510 5504
5425 5427 5431 5434 5439 5445 5450 5456 5460 5465 5473 5481 5488 5496 5503 5509 5512 5515 5518 5521 5525 5529 5534 5538 5540 5543 5544 5546 5545 5543 5543 5541 5537 5533 5528 5523 5520 5517 5514 5511 5507 5502 5497
5420 5422 5426 5429 5434 5439 5446 5454 5460 5466 5472 5480 5487 5493 5499 5505 5508 5510 5512 5515 5518 5522 5528 5532 5536 5539 5541 5541 5541 5541 5538 5532 5526 5522 5521 5515 5511 5508 5505 5502 5499 5494 5489
5416 5419 5422 5426 5430 5436 5442 5450 5457 5462 5470 5477 5484 5490 5495 5500 5504 5507 5509 5512 5515 5518 5521 5526 5531 5533 5535 5536 5535 5531 5528 5525 5519 5514 5513 5509 5503 5499 5496 5493 5490 5486 5481
5412 5416 5419 5423 5427 5432 5438 5446 5453 5459 5467 5474 5482 5488 5492 5497 5500 5505 5508 5510 5513 5515 5518 5522 5523 5525 5526 5528 5529 5529 5528 5523 5517 5509 5506 5503 5497 5493 5486 5482 5480 5476 5472